リニア彗星

221P/LINEAR (2009)

English version
Home page
Updated on May 5, 2012

---------------------------------------------------------------------

・ プロフィール

符号 221P/2009 L1
検出日 2009年6月1日
検出光度 20.5等
検出者 L. Elenin (Lyubertsy, Moscow region, Russia)

・ 軌道要素

Epoch 2009 Jan. 9.0 TT = JDT 2454840.5
T 2009 Jan. 24.90359 TT                                 MPC
q   1.7836742            (2000.0)            P               Q
n   0.15189977     Peri.   39.69986     -0.01433754     +0.98831758
a   3.4788148      Node   230.03385     -0.96032396     -0.05587960
e   0.4872753      Incl.   11.41856     -0.27851810     +0.14179502
P   6.49
From 173 observations 2002 Apr. 14-2009 Sept. 27, mean residual 0".7.

・ 光度変化

        m1 = 14.5 + 5 logΔ + 10.0 log r

---------------------------------------------------------------------

軌道要素はM.P.E.C. 2012-J16に掲載されたものです。
光度グラフはComet for Windowsで作成したものです。

---------------------------------------------------------------------

Copyright(C) Seiichi Yoshida (comet@aerith.net). All rights reserved.